Year,Month,Day,Hour,Minute,Value (Times are PST for windgust in km/hr)
2014,10,23,00,00,20.90
2014,10,23,00,01,17.70
2014,10,23,00,02,22.50
2014,10,23,00,03,19.30
2014,10,23,00,04,20.90
2014,10,23,00,05,33.80
2014,10,23,00,06,37.00
2014,10,23,00,07,35.40
2014,10,23,00,08,29.00
2014,10,23,00,09,38.60
2014,10,23,00,10,40.20
2014,10,23,00,11,33.80
2014,10,23,00,12,20.90
2014,10,23,00,13,24.20
2014,10,23,00,14,27.40
2014,10,23,00,15,35.40
2014,10,23,00,16,19.30
2014,10,23,00,17,25.70
2014,10,23,00,18,19.30
2014,10,23,00,19,25.70
2014,10,23,00,20,19.30
2014,10,23,00,21,22.50
2014,10,23,00,22,27.40
2014,10,23,00,23,19.30
2014,10,23,00,24,25.70
2014,10,23,00,25,25.70
2014,10,23,00,26,17.70
2014,10,23,00,27,20.90
2014,10,23,00,28,16.10
2014,10,23,00,29,24.20
2014,10,23,00,30,22.50
2014,10,23,00,31,22.50
2014,10,23,00,32,22.50
2014,10,23,00,33,20.90
2014,10,23,00,34,17.70
2014,10,23,00,35,25.70
2014,10,23,00,36,19.30
2014,10,23,00,37,22.50
2014,10,23,00,38,30.60
2014,10,23,00,39,24.20
2014,10,23,00,40,25.70
2014,10,23,00,41,24.20
2014,10,23,00,42,22.50
2014,10,23,00,43,29.00
2014,10,23,00,44,24.20
2014,10,23,00,45,16.10
2014,10,23,00,46,22.50
2014,10,23,00,47,24.20
2014,10,23,00,48,25.70
2014,10,23,00,49,20.90
2014,10,23,00,50,20.90
2014,10,23,00,51,20.90
2014,10,23,00,52,19.30
2014,10,23,00,53,17.70
2014,10,23,00,54,19.30
2014,10,23,00,55,20.90
2014,10,23,00,56,16.10
2014,10,23,00,57,16.10
2014,10,23,00,58,11.30
2014,10,23,00,59,16.10
2014,10,23,01,00,14.50
2014,10,23,01,01,14.50
2014,10,23,01,02,11.30
2014,10,23,01,03,16.10
2014,10,23,01,04,11.30
2014,10,23,01,05,17.70
2014,10,23,01,06,17.70
2014,10,23,01,07,16.10
2014,10,23,01,08,20.90
2014,10,23,01,09,11.30
2014,10,23,01,10,9.60
2014,10,23,01,11,19.30
2014,10,23,01,12,22.50
2014,10,23,01,13,16.10
2014,10,23,01,14,16.10
2014,10,23,01,15,9.60
2014,10,23,01,16,11.30
2014,10,23,01,17,11.30
2014,10,23,01,18,17.70
2014,10,23,01,19,12.90
2014,10,23,01,20,9.60
2014,10,23,01,21,6.40
2014,10,23,01,22,8.10
2014,10,23,01,23,6.40
2014,10,23,01,24,8.10
2014,10,23,01,25,8.10
2014,10,23,01,26,6.40
2014,10,23,01,27,4.80
2014,10,23,01,28,1.60
2014,10,23,01,29,6.40
2014,10,23,01,30,14.50
2014,10,23,01,31,11.30
2014,10,23,01,32,8.10
2014,10,23,01,33,6.40
2014,10,23,01,34,9.60
2014,10,23,01,35,6.40
2014,10,23,01,36,6.40
2014,10,23,01,37,4.80
2014,10,23,01,38,4.80
2014,10,23,01,39,6.40
2014,10,23,01,40,3.20
2014,10,23,01,41,4.80
2014,10,23,01,42,4.80
2014,10,23,01,43,4.80
2014,10,23,01,44,4.80
2014,10,23,01,45,3.20
2014,10,23,01,46,3.20
2014,10,23,01,47,4.80
2014,10,23,01,49,1.60
2014,10,23,01,52,3.20
2014,10,23,01,53,1.60
2014,10,23,02,00,1.60
2014,10,23,02,02,3.20
2014,10,23,02,03,1.60
2014,10,23,02,04,1.60
2014,10,23,02,05,1.60
2014,10,23,02,26,1.60
2014,10,23,02,27,4.80
2014,10,23,02,28,6.40
2014,10,23,02,29,6.40
2014,10,23,02,30,8.10
2014,10,23,02,31,9.60
2014,10,23,02,32,8.10
2014,10,23,02,33,8.10
2014,10,23,02,34,6.40
2014,10,23,02,35,8.10
2014,10,23,02,36,8.10
2014,10,23,02,37,4.80
2014,10,23,02,38,6.40
2014,10,23,02,39,3.20
2014,10,23,02,40,3.20
2014,10,23,02,41,1.60
2014,10,23,02,45,1.60
2014,10,23,03,00,3.20
2014,10,23,03,01,1.60
2014,10,23,03,02,1.60
2014,10,23,03,03,1.60
2014,10,23,03,04,1.60
2014,10,23,03,06,3.20
2014,10,23,03,07,3.20
2014,10,23,03,08,3.20
2014,10,23,03,09,3.20
2014,10,23,03,10,4.80
2014,10,23,03,11,4.80
2014,10,23,03,12,4.80
2014,10,23,03,13,4.80
2014,10,23,03,14,1.60
2014,10,23,03,16,3.20
2014,10,23,03,17,3.20
2014,10,23,03,18,3.20
2014,10,23,03,19,1.60
2014,10,23,03,26,1.60
2014,10,23,03,27,4.80
2014,10,23,03,29,4.80
2014,10,23,03,30,4.80
2014,10,23,03,31,1.60
2014,10,23,03,32,3.20
2014,10,23,03,33,3.20
2014,10,23,03,37,3.20
2014,10,23,03,39,1.60
2014,10,23,03,40,1.60
2014,10,23,03,41,3.20
2014,10,23,03,42,3.20
2014,10,23,03,43,4.80
2014,10,23,03,44,3.20
2014,10,23,03,52,1.60
2014,10,23,03,53,1.60
2014,10,23,03,55,4.80
2014,10,23,03,56,3.20
2014,10,23,03,58,3.20
2014,10,23,04,00,6.40
2014,10,23,04,01,6.40
2014,10,23,04,02,6.40
2014,10,23,04,03,6.40
2014,10,23,04,04,4.80
2014,10,23,04,05,6.40
2014,10,23,04,06,6.40
2014,10,23,04,07,4.80
2014,10,23,04,08,9.60
2014,10,23,04,09,19.30
2014,10,23,04,10,8.10
2014,10,23,04,11,11.30
2014,10,23,04,12,4.80
2014,10,23,04,13,11.30
2014,10,23,04,14,8.10
2014,10,23,04,15,12.90
2014,10,23,04,16,9.60
2014,10,23,04,17,8.10
2014,10,23,04,18,11.30
2014,10,23,04,19,11.30
2014,10,23,04,20,8.10
2014,10,23,04,21,9.60
2014,10,23,04,22,6.40
2014,10,23,04,23,4.80
2014,10,23,04,24,11.30
2014,10,23,04,25,8.10
2014,10,23,04,26,8.10
2014,10,23,04,27,9.60
2014,10,23,04,28,9.60
2014,10,23,04,29,9.60
2014,10,23,04,30,8.10
2014,10,23,04,31,8.10
2014,10,23,04,32,8.10
2014,10,23,04,33,8.10
2014,10,23,04,34,9.60
2014,10,23,04,35,9.60
2014,10,23,04,36,9.60
2014,10,23,04,37,8.10
2014,10,23,04,38,9.60
2014,10,23,04,39,8.10
2014,10,23,04,40,6.40
2014,10,23,04,41,4.80
2014,10,23,04,42,8.10
2014,10,23,04,43,6.40
2014,10,23,04,44,4.80
2014,10,23,04,45,8.10
2014,10,23,04,46,6.40
2014,10,23,04,48,3.20
2014,10,23,04,49,8.10
2014,10,23,04,50,6.40
2014,10,23,04,51,4.80
2014,10,23,04,52,6.40
2014,10,23,04,53,6.40
2014,10,23,04,54,1.60
2014,10,23,04,55,4.80
2014,10,23,04,56,6.40
2014,10,23,04,57,1.60
2014,10,23,04,58,4.80
2014,10,23,04,59,1.60
2014,10,23,05,01,1.60
2014,10,23,05,03,6.40
2014,10,23,05,04,4.80
2014,10,23,05,05,4.80
2014,10,23,05,06,3.20
2014,10,23,05,07,1.60
2014,10,23,05,10,4.80
2014,10,23,05,11,3.20
2014,10,23,05,12,1.60
2014,10,23,05,16,4.80
2014,10,23,05,17,4.80
2014,10,23,05,18,3.20
2014,10,23,05,19,1.60
2014,10,23,05,20,3.20
2014,10,23,05,21,3.20
2014,10,23,05,22,1.60
2014,10,23,05,24,1.60
2014,10,23,05,25,1.60
2014,10,23,05,34,1.60
2014,10,23,05,35,3.20
2014,10,23,05,36,1.60
2014,10,23,05,37,1.60
2014,10,23,05,38,1.60
2014,10,23,05,41,1.60
2014,10,23,05,42,1.60
2014,10,23,05,43,1.60
2014,10,23,05,44,4.80
2014,10,23,05,45,3.20
2014,10,23,05,46,3.20
2014,10,23,05,47,4.80
2014,10,23,05,48,6.40
2014,10,23,05,49,4.80
2014,10,23,05,50,4.80
2014,10,23,05,51,4.80
2014,10,23,05,52,6.40
2014,10,23,05,53,6.40
2014,10,23,05,54,4.80
2014,10,23,05,55,3.20
2014,10,23,05,56,1.60
2014,10,23,05,57,3.20
2014,10,23,06,09,4.80
2014,10,23,06,10,4.80
2014,10,23,06,11,8.10
2014,10,23,06,12,6.40
2014,10,23,06,13,6.40
2014,10,23,06,14,8.10
2014,10,23,06,15,6.40
2014,10,23,06,16,6.40
2014,10,23,06,17,6.40
2014,10,23,06,18,8.10
2014,10,23,06,19,8.10
2014,10,23,06,20,6.40
2014,10,23,06,21,6.40
2014,10,23,06,22,8.10
2014,10,23,06,23,4.80
2014,10,23,06,24,4.80
2014,10,23,06,25,3.20
2014,10,23,06,26,1.60
2014,10,23,06,28,3.20
2014,10,23,06,29,3.20
2014,10,23,06,34,1.60
2014,10,23,06,35,3.20
2014,10,23,06,37,1.60
2014,10,23,06,42,1.60
2014,10,23,06,46,3.20
2014,10,23,06,53,3.20
2014,10,23,06,54,3.20
2014,10,23,06,55,6.40
2014,10,23,06,56,4.80
2014,10,23,06,57,4.80
2014,10,23,06,58,4.80
2014,10,23,06,59,4.80
2014,10,23,07,00,4.80
2014,10,23,07,01,4.80
2014,10,23,07,02,6.40
2014,10,23,07,03,4.80
2014,10,23,07,04,4.80
2014,10,23,07,05,4.80
2014,10,23,07,06,6.40
2014,10,23,07,07,3.20
2014,10,23,07,08,3.20
2014,10,23,07,09,3.20
2014,10,23,07,33,4.80
2014,10,23,07,34,4.80
2014,10,23,07,35,4.80
2014,10,23,07,36,3.20
2014,10,23,07,39,3.20
2014,10,23,07,40,3.20
2014,10,23,07,45,3.20
2014,10,23,07,46,4.80
2014,10,23,07,47,3.20
2014,10,23,07,48,1.60
2014,10,23,07,49,1.60
2014,10,23,08,08,1.60
2014,10,23,08,11,1.60
2014,10,23,08,12,4.80
2014,10,23,08,13,4.80
2014,10,23,08,14,3.20
2014,10,23,08,19,3.20
2014,10,23,08,20,3.20
2014,10,23,08,21,4.80
2014,10,23,08,22,1.60
2014,10,23,08,23,1.60
2014,10,23,08,24,3.20
2014,10,23,08,25,3.20
2014,10,23,08,26,1.60
2014,10,23,08,28,3.20
2014,10,23,08,29,4.80
2014,10,23,08,35,3.20
2014,10,23,08,36,1.60
2014,10,23,08,38,1.60
2014,10,23,08,49,1.60
2014,10,23,08,52,1.60
2014,10,23,08,53,1.60
2014,10,23,08,58,4.80
2014,10,23,08,59,1.60
2014,10,23,09,04,3.20
2014,10,23,09,05,3.20
2014,10,23,09,06,4.80
2014,10,23,09,07,6.40
2014,10,23,09,08,6.40
2014,10,23,09,09,6.40
2014,10,23,09,10,4.80
2014,10,23,09,11,4.80
2014,10,23,09,12,6.40
2014,10,23,09,13,6.40
2014,10,23,09,14,8.10
2014,10,23,09,15,8.10
2014,10,23,09,16,6.40
2014,10,23,09,17,8.10
2014,10,23,09,18,6.40
2014,10,23,09,19,8.10
2014,10,23,09,20,6.40
2014,10,23,09,21,8.10
2014,10,23,09,22,9.60
2014,10,23,09,23,8.10
2014,10,23,09,24,11.30
2014,10,23,09,25,8.10
2014,10,23,09,26,8.10
2014,10,23,09,27,9.60
2014,10,23,09,28,8.10
2014,10,23,09,29,8.10
2014,10,23,09,30,9.60
2014,10,23,09,31,4.80
2014,10,23,09,32,8.10
2014,10,23,09,33,6.40
2014,10,23,09,34,3.20
2014,10,23,09,35,4.80
2014,10,23,09,36,6.40
2014,10,23,09,37,6.40
2014,10,23,09,38,6.40
2014,10,23,09,39,8.10
2014,10,23,09,40,6.40
2014,10,23,09,41,6.40
2014,10,23,09,42,4.80
2014,10,23,09,43,3.20
2014,10,23,09,44,1.60
2014,10,23,09,45,4.80
2014,10,23,09,46,8.10
2014,10,23,09,47,8.10
2014,10,23,09,48,6.40
2014,10,23,09,49,8.10
2014,10,23,09,50,8.10
2014,10,23,09,51,8.10
2014,10,23,09,52,8.10
2014,10,23,09,53,6.40
2014,10,23,09,54,8.10
2014,10,23,09,55,4.80
2014,10,23,09,56,3.20
2014,10,23,09,57,9.60
2014,10,23,09,58,11.30
2014,10,23,09,59,11.30
2014,10,23,10,00,6.40
2014,10,23,10,01,4.80
2014,10,23,10,02,4.80
2014,10,23,10,03,3.20
2014,10,23,10,04,3.20
2014,10,23,10,05,1.60
2014,10,23,10,06,3.20
2014,10,23,10,07,6.40
2014,10,23,10,08,8.10
2014,10,23,10,09,6.40
2014,10,23,10,10,8.10
2014,10,23,10,11,6.40
2014,10,23,10,12,6.40
2014,10,23,10,14,3.20
2014,10,23,10,15,1.60
2014,10,23,10,16,1.60
2014,10,23,10,17,1.60
2014,10,23,10,18,3.20
2014,10,23,10,19,3.20
2014,10,23,10,20,6.40
2014,10,23,10,21,6.40
2014,10,23,10,22,8.10
2014,10,23,10,23,6.40
2014,10,23,10,24,11.30
2014,10,23,10,25,8.10
2014,10,23,10,26,8.10
2014,10,23,10,27,6.40
2014,10,23,10,28,11.30
2014,10,23,10,29,11.30
2014,10,23,10,30,12.90
2014,10,23,10,31,11.30
2014,10,23,10,32,16.10
2014,10,23,10,33,9.60
2014,10,23,10,34,8.10
2014,10,23,10,35,9.60
2014,10,23,10,36,6.40
2014,10,23,10,37,9.60
2014,10,23,10,38,11.30
2014,10,23,10,39,11.30
2014,10,23,10,40,9.60
2014,10,23,10,41,8.10
2014,10,23,10,42,8.10
2014,10,23,10,43,8.10
2014,10,23,10,44,6.40
2014,10,23,10,45,9.60
2014,10,23,10,46,9.60
2014,10,23,10,47,4.80
2014,10,23,10,48,8.10
2014,10,23,10,49,8.10
2014,10,23,10,50,6.40
2014,10,23,10,51,6.40
2014,10,23,10,52,9.60
2014,10,23,10,53,9.60
2014,10,23,10,54,8.10
2014,10,23,10,55,8.10
2014,10,23,10,56,8.10
2014,10,23,10,57,8.10
2014,10,23,10,58,6.40
2014,10,23,10,59,4.80
2014,10,23,11,00,8.10
2014,10,23,11,01,9.60
2014,10,23,11,02,6.40
2014,10,23,11,03,8.10
2014,10,23,11,04,6.40
2014,10,23,11,05,8.10
2014,10,23,11,06,4.80
2014,10,23,11,07,6.40
2014,10,23,11,08,4.80
2014,10,23,11,09,6.40
2014,10,23,11,10,6.40
2014,10,23,11,11,9.60
2014,10,23,11,12,6.40
2014,10,23,11,13,4.80
2014,10,23,11,14,8.10
2014,10,23,11,15,9.60
2014,10,23,11,16,14.50
2014,10,23,11,17,9.60
2014,10,23,11,18,11.30
2014,10,23,11,19,14.50
2014,10,23,11,20,6.40
2014,10,23,11,21,9.60
2014,10,23,11,22,8.10
2014,10,23,11,23,9.60
2014,10,23,11,24,8.10
2014,10,23,11,25,16.10
2014,10,23,11,26,16.10
2014,10,23,11,27,12.90
2014,10,23,11,28,6.40
2014,10,23,11,29,8.10
2014,10,23,11,30,8.10
2014,10,23,11,31,9.60
2014,10,23,11,32,11.30
2014,10,23,11,33,11.30
2014,10,23,11,34,9.60
2014,10,23,11,35,11.30
2014,10,23,11,36,12.90
2014,10,23,11,37,9.60
2014,10,23,11,38,11.30
2014,10,23,11,39,11.30
2014,10,23,11,40,8.10
2014,10,23,11,41,11.30
2014,10,23,11,42,19.30
2014,10,23,11,43,16.10
2014,10,23,11,44,11.30
2014,10,23,11,45,8.10
2014,10,23,11,46,14.50
2014,10,23,11,47,11.30
2014,10,23,11,48,16.10
2014,10,23,11,49,12.90
2014,10,23,11,50,8.10
2014,10,23,11,51,8.10
2014,10,23,11,52,11.30
2014,10,23,11,53,11.30
2014,10,23,11,54,8.10
2014,10,23,11,55,8.10
2014,10,23,11,56,9.60
2014,10,23,11,57,11.30
2014,10,23,11,58,16.10
2014,10,23,11,59,14.50
2014,10,23,12,00,19.30
2014,10,23,12,01,16.10
2014,10,23,12,02,11.30
2014,10,23,12,03,16.10
2014,10,23,12,04,16.10
2014,10,23,12,05,19.30
2014,10,23,12,06,14.50
2014,10,23,12,07,16.10
2014,10,23,12,08,14.50
2014,10,23,12,09,9.60
2014,10,23,12,10,14.50
2014,10,23,12,11,11.30
2014,10,23,12,12,11.30
2014,10,23,12,13,9.60
2014,10,23,12,14,14.50
2014,10,23,12,15,12.90
2014,10,23,12,16,17.70
2014,10,23,12,17,14.50
2014,10,23,12,18,17.70
2014,10,23,12,19,20.90
2014,10,23,12,20,22.50
2014,10,23,12,21,19.30
2014,10,23,12,22,14.50
2014,10,23,12,23,17.70
2014,10,23,12,24,20.90
2014,10,23,12,25,19.30
2014,10,23,12,26,11.30
2014,10,23,12,27,20.90
2014,10,23,12,28,9.60
2014,10,23,12,29,9.60
2014,10,23,12,30,14.50
2014,10,23,12,31,9.60
2014,10,23,12,32,19.30
2014,10,23,12,33,19.30
2014,10,23,12,34,9.60
2014,10,23,12,35,14.50
2014,10,23,12,36,20.90
2014,10,23,12,37,11.30
2014,10,23,12,38,11.30
2014,10,23,12,39,24.20
2014,10,23,12,40,19.30
2014,10,23,12,41,14.50
2014,10,23,12,42,9.60
2014,10,23,12,43,9.60
2014,10,23,12,44,20.90
2014,10,23,12,45,16.10
2014,10,23,12,46,16.10
2014,10,23,12,47,17.70
2014,10,23,12,48,19.30
2014,10,23,12,49,11.30
2014,10,23,12,50,16.10
2014,10,23,12,51,17.70
2014,10,23,12,52,25.70
2014,10,23,12,53,16.10
2014,10,23,12,54,19.30
2014,10,23,12,55,16.10
2014,10,23,12,56,20.90
2014,10,23,12,57,14.50
2014,10,23,12,58,16.10
2014,10,23,12,59,17.70
2014,10,23,13,00,14.50
2014,10,23,13,01,16.10
2014,10,23,13,02,14.50
2014,10,23,13,03,11.30
2014,10,23,13,04,17.70
2014,10,23,13,05,22.50
2014,10,23,13,06,20.90
2014,10,23,13,07,16.10
2014,10,23,13,08,16.10
2014,10,23,13,09,19.30
2014,10,23,13,10,16.10
2014,10,23,13,11,19.30
2014,10,23,13,12,14.50
2014,10,23,13,13,16.10
2014,10,23,13,14,17.70
2014,10,23,13,15,17.70
2014,10,23,13,16,11.30
2014,10,23,13,17,17.70
2014,10,23,13,18,19.30
2014,10,23,13,19,14.50
2014,10,23,13,20,8.10
2014,10,23,13,21,16.10
2014,10,23,13,22,8.10
2014,10,23,13,23,16.10
2014,10,23,13,24,14.50
2014,10,23,13,25,14.50
2014,10,23,13,26,22.50
2014,10,23,13,27,24.20
2014,10,23,13,28,17.70
2014,10,23,13,29,29.00
2014,10,23,13,30,19.30
2014,10,23,13,31,20.90
2014,10,23,13,32,20.90
2014,10,23,13,33,27.40
2014,10,23,13,34,22.50
2014,10,23,13,35,19.30
2014,10,23,13,36,17.70
2014,10,23,13,37,20.90
2014,10,23,13,38,19.30
2014,10,23,13,39,22.50
2014,10,23,13,40,19.30
2014,10,23,13,41,22.50
2014,10,23,13,42,19.30
2014,10,23,13,43,20.90
2014,10,23,13,44,19.30
2014,10,23,13,45,19.30
2014,10,23,13,46,17.70
2014,10,23,13,47,20.90
2014,10,23,13,48,22.50
2014,10,23,13,49,16.10
2014,10,23,13,50,14.50
2014,10,23,13,51,16.10
2014,10,23,13,52,17.70
2014,10,23,13,53,22.50
2014,10,23,13,54,19.30
2014,10,23,13,55,17.70
2014,10,23,13,56,19.30
2014,10,23,13,57,19.30
2014,10,23,13,58,22.50
2014,10,23,13,59,17.70
2014,10,23,14,00,16.10
2014,10,23,14,01,14.50
2014,10,23,14,02,16.10
2014,10,23,14,03,16.10
2014,10,23,14,04,11.30
2014,10,23,14,05,16.10
2014,10,23,14,06,9.60
2014,10,23,14,07,6.40
2014,10,23,14,08,14.50
2014,10,23,14,09,19.30
2014,10,23,14,10,17.70
2014,10,23,14,11,17.70
2014,10,23,14,12,24.20
2014,10,23,14,13,22.50
2014,10,23,14,14,16.10
2014,10,23,14,15,25.70
2014,10,23,14,16,9.60
2014,10,23,14,17,9.60
2014,10,23,14,18,22.50
2014,10,23,14,19,19.30
2014,10,23,14,20,19.30
2014,10,23,14,21,20.90
2014,10,23,14,22,16.10
2014,10,23,14,23,22.50
2014,10,23,14,24,19.30
2014,10,23,14,25,25.70
2014,10,23,14,26,29.00
2014,10,23,14,27,29.00
2014,10,23,14,28,19.30
2014,10,23,14,29,11.30
2014,10,23,14,30,9.60
2014,10,23,14,31,11.30
2014,10,23,14,32,22.50
2014,10,23,14,33,29.00
2014,10,23,14,34,24.20
2014,10,23,14,35,22.50
2014,10,23,14,36,24.20
2014,10,23,14,37,17.70
2014,10,23,14,38,20.90
2014,10,23,14,39,11.30
2014,10,23,14,40,12.90
2014,10,23,14,41,11.30
2014,10,23,14,42,6.40
2014,10,23,14,43,9.60
2014,10,23,14,44,17.70
2014,10,23,14,45,17.70
2014,10,23,14,46,16.10
2014,10,23,14,47,20.90
2014,10,23,14,48,20.90
2014,10,23,14,49,24.20
2014,10,23,14,50,19.30
2014,10,23,14,51,19.30
2014,10,23,14,52,11.30
2014,10,23,14,53,19.30
2014,10,23,14,54,19.30
2014,10,23,14,55,19.30
2014,10,23,14,56,6.40
2014,10,23,14,57,8.10
2014,10,23,14,58,8.10
2014,10,23,14,59,16.10
2014,10,23,15,00,8.10
2014,10,23,15,01,6.40
2014,10,23,15,02,8.10
2014,10,23,15,03,11.30
2014,10,23,15,04,8.10
2014,10,23,15,05,9.60
2014,10,23,15,06,9.60
2014,10,23,15,07,11.30
2014,10,23,15,08,12.90
2014,10,23,15,09,9.60
2014,10,23,15,10,6.40
2014,10,23,15,11,8.10
2014,10,23,15,12,8.10
2014,10,23,15,13,9.60
2014,10,23,15,14,4.80
2014,10,23,15,15,6.40
2014,10,23,15,16,8.10
2014,10,23,15,17,9.60
2014,10,23,15,18,6.40
2014,10,23,15,19,9.60
2014,10,23,15,20,11.30
2014,10,23,15,21,11.30
2014,10,23,15,22,11.30
2014,10,23,15,23,8.10
2014,10,23,15,24,9.60
2014,10,23,15,25,14.50
2014,10,23,15,26,8.10
2014,10,23,15,27,8.10
2014,10,23,15,28,16.10
2014,10,23,15,29,17.70
2014,10,23,15,30,17.70
2014,10,23,15,31,19.30
2014,10,23,15,32,11.30
2014,10,23,15,33,14.50
2014,10,23,15,34,16.10
2014,10,23,15,35,24.20
2014,10,23,15,36,17.70
2014,10,23,15,37,11.30
2014,10,23,15,38,19.30
2014,10,23,15,39,29.00
2014,10,23,15,40,24.20
2014,10,23,15,41,20.90
2014,10,23,15,42,17.70
2014,10,23,15,43,14.50
2014,10,23,15,44,20.90
2014,10,23,15,45,14.50
2014,10,23,15,46,20.90
2014,10,23,15,47,20.90
2014,10,23,15,48,19.30
2014,10,23,15,49,12.90
2014,10,23,15,50,14.50
2014,10,23,15,51,24.20
2014,10,23,15,52,17.70
2014,10,23,15,53,29.00
2014,10,23,15,54,17.70
2014,10,23,15,55,25.70
2014,10,23,15,56,29.00
2014,10,23,15,57,24.20
2014,10,23,15,58,27.40
2014,10,23,15,59,24.20
2014,10,23,16,00,27.40
2014,10,23,16,01,35.40
2014,10,23,16,02,27.40
2014,10,23,16,03,32.20
2014,10,23,16,04,22.50
2014,10,23,16,05,19.30
2014,10,23,16,06,27.40
2014,10,23,16,07,22.50
2014,10,23,16,08,27.40
2014,10,23,16,09,20.90
2014,10,23,16,10,24.20
2014,10,23,16,11,27.40
2014,10,23,16,12,19.30
2014,10,23,16,13,29.00
2014,10,23,16,14,22.50
2014,10,23,16,15,30.60
2014,10,23,16,16,24.20
2014,10,23,16,17,22.50
2014,10,23,16,18,27.40
2014,10,23,16,19,17.70
2014,10,23,16,20,11.30
2014,10,23,16,21,17.70
2014,10,23,16,22,19.30
2014,10,23,16,23,29.00
2014,10,23,16,24,32.20
2014,10,23,16,25,27.40
2014,10,23,16,26,24.20
2014,10,23,16,27,24.20
2014,10,23,16,28,37.00
2014,10,23,16,29,32.20
2014,10,23,16,30,22.50
2014,10,23,16,31,29.00
2014,10,23,16,32,30.60
2014,10,23,16,33,27.40
2014,10,23,16,34,30.60
2014,10,23,16,35,24.20
2014,10,23,16,36,20.90
2014,10,23,16,37,19.30
2014,10,23,16,38,20.90
2014,10,23,16,39,24.20
2014,10,23,16,40,25.70
2014,10,23,16,41,22.50
2014,10,23,16,42,16.10
2014,10,23,16,43,16.10
2014,10,23,16,44,16.10
2014,10,23,16,45,14.50
2014,10,23,16,46,22.50
2014,10,23,16,47,22.50
2014,10,23,16,48,19.30
2014,10,23,16,49,22.50
2014,10,23,16,50,19.30
2014,10,23,16,51,19.30
2014,10,23,16,52,16.10
2014,10,23,16,53,14.50
2014,10,23,16,54,16.10
2014,10,23,16,55,17.70
2014,10,23,16,56,17.70
2014,10,23,16,57,19.30
2014,10,23,16,58,20.90
2014,10,23,16,59,19.30
2014,10,23,17,00,12.90
2014,10,23,17,01,11.30
2014,10,23,17,02,11.30
2014,10,23,17,03,9.60
2014,10,23,17,04,19.30
2014,10,23,17,05,19.30
2014,10,23,17,06,20.90
2014,10,23,17,07,19.30
2014,10,23,17,08,16.10
2014,10,23,17,09,16.10
2014,10,23,17,10,20.90
2014,10,23,17,11,16.10
2014,10,23,17,12,16.10
2014,10,23,17,13,17.70
2014,10,23,17,14,12.90
2014,10,23,17,15,14.50
2014,10,23,17,16,12.90
2014,10,23,17,17,14.50
2014,10,23,17,18,8.10
2014,10,23,17,19,11.30
2014,10,23,17,20,8.10
2014,10,23,17,21,9.60
2014,10,23,17,22,11.30
2014,10,23,17,23,16.10
2014,10,23,17,24,14.50
2014,10,23,17,25,14.50
2014,10,23,17,26,17.70
2014,10,23,17,27,16.10
2014,10,23,17,28,16.10
2014,10,23,17,29,20.90
2014,10,23,17,30,20.90
2014,10,23,17,31,14.50
2014,10,23,17,32,12.90
2014,10,23,17,33,22.50
2014,10,23,17,34,16.10
2014,10,23,17,35,16.10
2014,10,23,17,36,16.10
2014,10,23,17,37,17.70
2014,10,23,17,38,20.90
2014,10,23,17,39,11.30
2014,10,23,17,40,11.30
2014,10,23,17,41,16.10
2014,10,23,17,42,11.30
2014,10,23,17,43,16.10
2014,10,23,17,44,8.10
2014,10,23,17,45,9.60
2014,10,23,17,46,16.10
2014,10,23,17,47,9.60
2014,10,23,17,48,6.40
2014,10,23,17,49,11.30
2014,10,23,17,50,9.60
2014,10,23,17,51,14.50
2014,10,23,17,52,8.10
2014,10,23,17,53,6.40
2014,10,23,17,54,3.20
2014,10,23,17,55,14.50
2014,10,23,17,56,8.10
2014,10,23,17,57,11.30
2014,10,23,17,58,11.30
2014,10,23,17,59,3.20
2014,10,23,18,00,11.30
2014,10,23,18,01,11.30
2014,10,23,18,02,6.40
2014,10,23,18,03,3.20
2014,10,23,18,05,8.10
2014,10,23,18,06,6.40
2014,10,23,18,07,6.40
2014,10,23,18,08,6.40
2014,10,23,18,10,4.80
2014,10,23,18,11,4.80
2014,10,23,18,12,3.20
2014,10,23,18,13,3.20
2014,10,23,18,14,3.20
2014,10,23,18,15,3.20
2014,10,23,18,16,3.20
2014,10,23,18,17,3.20
2014,10,23,18,18,3.20
2014,10,23,18,24,3.20
2014,10,23,18,25,1.60
2014,10,23,18,28,3.20
2014,10,23,18,29,3.20
2014,10,23,18,33,4.80
2014,10,23,18,34,4.80
2014,10,23,18,35,6.40
2014,10,23,18,36,4.80
2014,10,23,18,37,3.20
2014,10,23,18,38,3.20
2014,10,23,18,39,4.80
2014,10,23,18,40,4.80
2014,10,23,18,41,1.60
2014,10,23,18,45,3.20
2014,10,23,18,46,3.20
2014,10,23,18,47,3.20
2014,10,23,18,48,4.80
2014,10,23,18,49,1.60
2014,10,23,18,51,1.60
2014,10,23,19,26,3.20
2014,10,23,19,27,1.60
2014,10,23,19,28,1.60
2014,10,23,19,32,1.60
2014,10,23,19,40,1.60
2014,10,23,19,41,1.60
2014,10,23,19,43,3.20
2014,10,23,19,44,3.20
2014,10,23,19,45,3.20
2014,10,23,19,46,4.80
2014,10,23,19,47,6.40
2014,10,23,19,48,6.40
2014,10,23,19,49,6.40
2014,10,23,19,50,8.10
2014,10,23,19,51,8.10
2014,10,23,19,52,4.80
2014,10,23,19,53,4.80
2014,10,23,19,54,1.60
2014,10,23,19,57,1.60
2014,10,23,19,59,1.60
2014,10,23,20,07,1.60
2014,10,23,20,08,3.20
2014,10,23,20,12,4.80
2014,10,23,20,13,8.10
2014,10,23,20,14,6.40
2014,10,23,20,15,3.20
2014,10,23,20,16,4.80
2014,10,23,20,17,3.20
2014,10,23,20,18,3.20
2014,10,23,20,19,1.60
2014,10,23,20,20,3.20
2014,10,23,20,26,3.20
2014,10,23,20,27,1.60
2014,10,23,20,31,1.60
2014,10,23,20,32,3.20
2014,10,23,20,33,1.60
2014,10,23,20,35,3.20
2014,10,23,20,36,3.20
2014,10,23,21,04,1.60
2014,10,23,21,05,1.60
2014,10,23,21,06,1.60
2014,10,23,21,20,1.60
2014,10,23,21,21,3.20
2014,10,23,21,22,3.20
2014,10,23,21,23,1.60
2014,10,23,22,14,1.60
2014,10,23,22,15,1.60
2014,10,23,22,16,1.60
2014,10,23,22,17,1.60
2014,10,23,22,18,1.60
2014,10,23,22,19,1.60
2014,10,23,22,20,3.20
2014,10,23,22,21,4.80
2014,10,23,22,22,4.80
2014,10,23,22,23,3.20
2014,10,23,22,24,3.20
2014,10,23,22,25,3.20
2014,10,23,22,27,1.60
2014,10,23,22,51,1.60
2014,10,23,22,54,1.60
2014,10,23,22,57,1.60
2014,10,23,23,19,3.20
2014,10,23,23,20,3.20
2014,10,23,23,21,3.20
2014,10,23,23,22,1.60
2014,10,23,23,23,3.20
2014,10,23,23,24,3.20
2014,10,23,23,25,1.60
2014,10,23,23,26,1.60
2014,10,23,23,28,3.20
2014,10,23,23,29,1.60
2014,10,23,23,43,1.60
2014,10,23,23,51,3.20
2014,10,23,23,52,4.80
